DEBMA EDHE-EDHE

Flight info

Callsign DEBMA
Flight time 0h 37m
Altitude 2500
Route RUNDFLUG HH INNENSTADT
Aircraft C152/L-V/N

Departure

Time 2026-04-21 11:58
Airport Uetersen-Heist Airfield (EDHE)

Arrival

Time 2026-04-21 12:35
Airport Uetersen-Heist Airfield (EDHE)
Time Latitude Longitude Altitude Speed Heading
2026-04-21 11:36 53.64516 9.70420 25 ft 0 kts 282°
2026-04-21 11:52 53.64517 9.70410 25 ft 3 kts 279°
2026-04-21 11:52 53.64519 9.70389 25 ft 0 kts 278°
2026-04-21 11:55 53.64536 9.70276 25 ft 17 kts 286°
2026-04-21 11:55 53.64589 9.70069 25 ft 17 kts 301°
2026-04-21 11:55 53.64624 9.70029 25 ft 1 kts
2026-04-21 11:55 53.64626 9.70029 25 ft 0 kts 355°
2026-04-21 11:56 53.64631 9.70028 25 ft 4 kts 355°
2026-04-21 11:56 53.64667 9.70048 25 ft 5 kts 88°
2026-04-21 11:56 53.64665 9.70161 24 ft 32 kts 96°
2026-04-21 11:56 53.64615 9.70812 129 ft 67 kts 85°
2026-04-21 11:57 53.64591 9.71546 488 ft 60 kts 99°
2026-04-21 11:57 53.64566 9.71632 525 ft 64 kts 111°
2026-04-21 11:57 53.64445 9.71818 580 ft 77 kts 134°
2026-04-21 11:58 53.63886 9.71921 833 ft 93 kts 191°
2026-04-21 11:58 53.63721 9.71769 889 ft 99 kts 209°
2026-04-21 11:59 53.63460 9.71310 1015 ft 104 kts 238°
2026-04-21 11:59 53.63308 9.70162 1346 ft 98 kts 268°
2026-04-21 11:59 53.63242 9.69053 1697 ft 95 kts 267°
2026-04-21 12:00 53.63139 9.67955 1953 ft 98 kts 268°
2026-04-21 12:00 53.63027 9.66844 2147 ft 105 kts 264°
2026-04-21 12:00 53.62812 9.65576 2148 ft 120 kts 248°
2026-04-21 12:00 53.62363 9.64328 2102 ft 128 kts 238°
2026-04-21 12:01 53.61849 9.63102 2044 ft 131 kts 233°
2026-04-21 12:01 53.61283 9.61863 1911 ft 131 kts 232°
2026-04-21 12:01 53.60702 9.60701 1895 ft 127 kts 226°
2026-04-21 12:01 53.59996 9.59898 1879 ft 119 kts 194°
2026-04-21 12:02 53.59230 9.60008 1834 ft 111 kts 141°
2026-04-21 12:02 53.58346 9.62023 1681 ft 102 kts 114°
2026-04-21 12:02 53.58003 9.63035 1679 ft 101 kts 110°
2026-04-21 12:03 53.57930 9.64123 1629 ft 92 kts 61°
2026-04-21 12:03 53.58463 9.64574 1622 ft 97 kts 358°
2026-04-21 12:03 53.59014 9.63880 1631 ft 104 kts 309°
2026-04-21 12:03 53.59381 9.62823 1679 ft 104 kts 308°
2026-04-21 12:04 53.59740 9.61780 1700 ft 104 kts 310°
2026-04-21 12:04 53.60119 9.60734 1702 ft 106 kts 308°
2026-04-21 12:04 53.60413 9.59588 1677 ft 110 kts 283°
2026-04-21 12:04 53.60135 9.58407 1598 ft 116 kts 216°
2026-04-21 12:05 53.59416 9.58454 1570 ft 105 kts 133°
2026-04-21 12:05 53.59086 9.59454 1595 ft 95 kts 106°
2026-04-21 12:05 53.58824 9.60420 1765 ft 85 kts 106°
2026-04-21 12:05 53.58588 9.61250 2057 ft 75 kts 107°
2026-04-21 12:06 53.58341 9.62097 2104 ft 88 kts 107°
2026-04-21 12:06 53.58092 9.63025 2141 ft 88 kts 108°
2026-04-21 12:06 53.57851 9.63979 2192 ft 87 kts 105°
2026-04-21 12:06 53.57622 9.64913 2254 ft 88 kts 106°
2026-04-21 12:07 53.57374 9.65869 2274 ft 91 kts 106°
2026-04-21 12:07 53.57118 9.66862 2295 ft 92 kts 105°
2026-04-21 12:07 53.56870 9.67855 2327 ft 92 kts 106°
2026-04-21 12:07 53.56641 9.68880 2295 ft 95 kts 103°
2026-04-21 12:08 53.56438 9.69944 2324 ft 93 kts 100°
2026-04-21 12:08 53.56272 9.70963 2289 ft 87 kts 99°
2026-04-21 12:08 53.56124 9.71925 2212 ft 82 kts 97°
2026-04-21 12:08 53.55990 9.72845 2078 ft 84 kts 99°
2026-04-21 12:09 53.55814 9.73810 1890 ft 88 kts 101°
2026-04-21 12:09 53.55655 9.74769 1844 ft 82 kts 96°
2026-04-21 12:09 53.55537 9.75683 1789 ft 79 kts 96°
2026-04-21 12:09 53.55432 9.76604 1718 ft 79 kts 95°
2026-04-21 12:10 53.55335 9.77542 1571 ft 83 kts 94°
2026-04-21 12:10 53.55220 9.78484 1466 ft 82 kts 96°
2026-04-21 12:10 53.55092 9.79371 1480 ft 80 kts 97°
2026-04-21 12:10 53.55002 9.80317 1514 ft 83 kts 93°
2026-04-21 12:11 53.54924 9.81265 1568 ft 82 kts 94°
2026-04-21 12:11 53.54868 9.82206 1643 ft 80 kts 87°
2026-04-21 12:11 53.54794 9.83142 1677 ft 83 kts 95°
2026-04-21 12:11 53.54654 9.84104 1693 ft 84 kts 96°
2026-04-21 12:12 53.54530 9.85046 1722 ft 83 kts 94°
2026-04-21 12:12 53.54408 9.86016 1701 ft 87 kts 96°
2026-04-21 12:12 53.54293 9.87034 1669 ft 90 kts 96°
2026-04-21 12:12 53.54185 9.88069 1647 ft 89 kts 91°
2026-04-21 12:13 53.54177 9.88190 1648 ft 88 kts 91°
2026-04-21 12:13 53.54127 9.89234 1620 ft 94 kts 89°
2026-04-21 12:13 53.54091 9.90318 1614 ft 92 kts 86°
2026-04-21 12:13 53.54054 9.91415 1522 ft 92 kts 88°
2026-04-21 12:14 53.54084 9.92465 1370 ft 89 kts 79°
2026-04-21 12:14 53.54159 9.93458 1356 ft 79 kts 77°
2026-04-21 12:14 53.54296 9.94356 1376 ft 79 kts 70°
2026-04-21 12:14 53.54450 9.95229 1384 ft 79 kts 71°
2026-04-21 12:15 53.54535 9.96145 1409 ft 78 kts 89°
2026-04-21 12:15 53.54384 9.97076 1409 ft 84 kts 97°
2026-04-21 12:15 53.54473 9.97995 1353 ft 87 kts 57°
2026-04-21 12:15 53.54829 9.98747 1449 ft 77 kts 50°
2026-04-21 12:16 53.55168 9.99466 1443 ft 80 kts 53°
2026-04-21 12:16 53.55450 10.00265 1473 ft 76 kts 59°
2026-04-21 12:16 53.55799 10.00937 1486 ft 80 kts 37°
2026-04-21 12:16 53.56348 10.01161 1509 ft 86 kts 358°
2026-04-21 12:17 53.56894 10.00590 1435 ft 99 kts 329°
2026-04-21 12:17 53.57396 9.99896 1511 ft 92 kts 329°
2026-04-21 12:17 53.57708 9.98907 1567 ft 100 kts 284°
2026-04-21 12:17 53.57651 9.97729 1599 ft 106 kts 254°
2026-04-21 12:18 53.57249 9.96644 1584 ft 113 kts 224°
2026-04-21 12:18 53.56584 9.95903 1529 ft 110 kts 207°
2026-04-21 12:18 53.55908 9.95319 1549 ft 111 kts 201°
2026-04-21 12:18 53.55184 9.94799 1566 ft 113 kts 196°
2026-04-21 12:19 53.54442 9.94673 1496 ft 106 kts 154°
2026-04-21 12:19 53.53878 9.95332 1454 ft 94 kts 120°
2026-04-21 12:19 53.53618 9.96288 1393 ft 88 kts 95°
2026-04-21 12:19 53.53524 9.97319 1327 ft 91 kts 89°
2026-04-21 12:20 53.53536 9.98364 1331 ft 85 kts 82°
2026-04-21 12:20 53.53599 9.99278 1441 ft 80 kts 75°
2026-04-21 12:20 53.53745 10.00188 1460 ft 82 kts 69°
2026-04-21 12:20 53.53949 10.01093 1433 ft 80 kts 58°
2026-04-21 12:21 53.54373 10.01614 1469 ft 82 kts 15°
2026-04-21 12:21 53.54964 10.01613 1519 ft 83 kts
2026-04-21 12:21 53.55560 10.01502 1528 ft 89 kts 360°
2026-04-21 12:21 53.56180 10.01336 1525 ft 90 kts 355°
2026-04-21 12:22 53.56793 10.01102 1492 ft 92 kts 351°
2026-04-21 12:22 53.57304 10.00405 1441 ft 103 kts 302°
2026-04-21 12:22 53.57257 9.99157 1341 ft 118 kts 245°
2026-04-21 12:22 53.56985 9.98343 1298 ft 117 kts 242°
2026-04-21 12:23 53.56576 9.97160 1267 ft 118 kts 238°
2026-04-21 12:23 53.55790 9.96010 1283 ft 108 kts 213°
2026-04-21 12:23 53.55219 9.95266 1442 ft 101 kts 224°
2026-04-21 12:23 53.54912 9.94665 1552 ft 103 kts 232°
2026-04-21 12:24 53.54510 9.93643 1712 ft 103 kts 246°
2026-04-21 12:24 53.54303 9.92524 1977 ft 98 kts 260°
2026-04-21 12:24 53.54202 9.91394 2162 ft 99 kts 269°
2026-04-21 12:24 53.54182 9.90259 2307 ft 100 kts 277°
2026-04-21 12:25 53.54203 9.89040 2321 ft 106 kts 276°
2026-04-21 12:25 53.54233 9.87792 2321 ft 109 kts 278°
2026-04-21 12:25 53.54286 9.86511 2285 ft 112 kts 281°
2026-04-21 12:25 53.54387 9.85180 2164 ft 117 kts 287°
2026-04-21 12:26 53.54510 9.83899 2293 ft 102 kts 281°
2026-04-21 12:26 53.54582 9.82667 2375 ft 108 kts 281°
2026-04-21 12:26 53.54693 9.81390 2373 ft 111 kts 285°
2026-04-21 12:26 53.54839 9.80111 2348 ft 111 kts 288°
2026-04-21 12:27 53.55005 9.78839 2348 ft 111 kts 291°
2026-04-21 12:27 53.55178 9.77583 2357 ft 111 kts 288°
2026-04-21 12:27 53.55327 9.76259 2257 ft 115 kts 285°
2026-04-21 12:27 53.55455 9.74956 2221 ft 112 kts 285°
2026-04-21 12:28 53.55586 9.73704 2335 ft 109 kts 289°
2026-04-21 12:28 53.55749 9.72486 2352 ft 107 kts 289°
2026-04-21 12:28 53.55898 9.71278 2396 ft 104 kts 289°
2026-04-21 12:28 53.56069 9.70079 2438 ft 105 kts 288°
2026-04-21 12:29 53.56260 9.68877 2495 ft 108 kts 295°
2026-04-21 12:29 53.56536 9.67757 2476 ft 102 kts 302°
2026-04-21 12:29 53.56832 9.66703 2470 ft 99 kts 301°
2026-04-21 12:29 53.57120 9.65650 2437 ft 100 kts 302°
2026-04-21 12:30 53.57418 9.64618 2443 ft 97 kts 306°
2026-04-21 12:30 53.57727 9.63627 2444 ft 95 kts 309°
2026-04-21 12:30 53.58056 9.62677 2434 ft 94 kts 310°
2026-04-21 12:30 53.58419 9.61723 2417 ft 101 kts 311°
2026-04-21 12:31 53.58794 9.60702 2456 ft 101 kts 306°
2026-04-21 12:31 53.59144 9.59685 2461 ft 102 kts 310°
2026-04-21 12:31 53.59644 9.58903 2435 ft 96 kts 343°
2026-04-21 12:31 53.60274 9.58905 2405 ft 92 kts 22°
2026-04-21 12:32 53.60822 9.59424 2290 ft 86 kts 43°
2026-04-21 12:32 53.61179 9.60179 2186 ft 77 kts 59°
2026-04-21 12:32 53.61431 9.60927 2014 ft 72 kts 59°
2026-04-21 12:32 53.61686 9.61644 1969 ft 72 kts 60°
2026-04-21 12:33 53.61985 9.62394 1743 ft 80 kts 56°
2026-04-21 12:33 53.62273 9.63160 1582 ft 75 kts 58°
2026-04-21 12:33 53.62533 9.63890 1449 ft 72 kts 58°
2026-04-21 12:33 53.62774 9.64609 1319 ft 70 kts 61°
2026-04-21 12:34 53.62993 9.65333 1187 ft 69 kts 64°
2026-04-21 12:34 53.63195 9.66131 1060 ft 76 kts 64°
2026-04-21 12:34 53.63395 9.66922 880 ft 74 kts 66°
2026-04-21 12:34 53.63640 9.67686 722 ft 71 kts 56°
2026-04-21 12:35 53.64023 9.68002 530 ft 55 kts 28°
2026-04-21 12:35 53.64355 9.68219 354 ft 49 kts 44°
2026-04-21 12:35 53.64601 9.68573 266 ft 38 kts 54°
2026-04-21 12:35 53.64689 9.69013 187 ft 45 kts 79°
2026-04-21 12:36 53.64677 9.69579 70 ft 46 kts 82°
2026-04-21 12:36 53.64667 9.69933 25 ft 16 kts 96°
2026-04-21 12:36 53.64667 9.69997 25 ft 0 kts 81°
2026-04-21 12:37 53.64667 9.70032 25 ft 18 kts 90°
2026-04-21 12:37 53.64642 9.70487 65 ft 46 kts 90°
2026-04-21 12:38 53.64640 9.70948 230 ft 34 kts 72°
2026-04-21 12:38 53.64660 9.71422 413 ft 46 kts 80°
2026-04-21 12:38 53.64500 9.72061 570 ft 67 kts 111°
2026-04-21 12:38 53.64022 9.72538 667 ft 94 kts 172°
2026-04-21 12:39 53.63422 9.71991 707 ft 112 kts 238°
2026-04-21 12:39 53.63265 9.70725 777 ft 115 kts 276°
2026-04-21 12:39 53.63374 9.69335 691 ft 123 kts 286°
2026-04-21 12:39 53.63625 9.68032 651 ft 109 kts 304°
2026-04-21 12:40 53.64139 9.67408 668 ft 82 kts
2026-04-21 12:40 53.64618 9.67742 505 ft 71 kts 56°
2026-04-21 12:40 53.64714 9.68493 337 ft 63 kts 83°
2026-04-21 12:40 53.64709 9.69108 179 ft 51 kts 90°
2026-04-21 12:41 53.64672 9.69721 52 ft 48 kts 85°
2026-04-21 12:41 53.64664 9.70084 24 ft 19 kts 92°
2026-04-21 12:41 53.64656 9.70269 24 ft 14 kts 87°
2026-04-21 12:41 53.64601 9.70327 25 ft 12 kts 164°
2026-04-21 12:42 53.64512 9.70371 25 ft 13 kts 189°
2026-04-21 12:42 53.64462 9.70409 25 ft 6 kts 118°
2026-04-21 12:42 53.64456 9.70443 25 ft 0 kts 74°